Flag for Canada Weather past 2 weeks in Quesnel, British Columbia, Canada

Now
19 °F

Overcast.


Feels Like: 13 °F
Forecast: 20 / 29 °F
Wind: 5 mph from North

Location: Quesnel Airport

Current Time: Feb 1, 2015 at 1:23:24 AM

Latest Report: Feb 1, 2015 at 1:00 AM


Visibility: 9 mi

Pressure: 30.33 "Hg

Humidity: 93%

Dew point: 18 °F

Location of QuesnelLocation

Historic Weather in Quesnel — Graph

°F

Quesnel temperature yesterday

Maximum temperature yesterday: 27 °F (at 12:00 AM)
Minimum temperature yesterday: 7 °F (at 8:00 AM)
Average temperature yesterday: 19 °F

Past Weeks' High & Low Weather Summary

 TemperatureHumidityPressure
High43 °F (Jan 25, 2:00 AM)100% (Jan 17, 11:00 AM)30.55 "Hg (Jan 17, 11:00 AM)
Low7 °F (Jan 31, 8:00 AM)65% (Jan 21, 6:00 PM)29.58 "Hg (Jan 18, 11:56 AM)
Average31 °F94%30.17 "Hg
* Reported Midnight between Jan 16 and Jan 17 — Midnight between Jan 31 and Feb 1, Quesnel, Weather by CustomWeather, © 2014

Note: Actual official high and low records may vary slightly from our data, if they occured in-between our weather recording intervals... More about our weather records

Advertising

Quesnel weather history for previous 24 hours

 ConditionsComfort  
Time TempWeatherWind HumidityBarometerVisibility
12:00 AM
Feb 1
19 °FOvercast.5 mph93%30.36 "Hg9 mi
11:00 PM
Jan 31
19 °FOvercast.5 mph93%30.38 "Hg9 mi
10:00 PM19 °FOvercast.3 mph93%30.40 "Hg9 mi
9:00 PM21 °FOvercast.3 mph93%30.43 "Hg9 mi
8:00 PM21 °FOvercast.5 mph93%30.46 "Hg9 mi
7:00 PM21 °FOvercast.5 mph93%30.47 "Hg9 mi
6:00 PM21 °FOvercast.5 mph86%30.49 "Hg9 mi
5:00 PM23 °FOvercast.5 mph80%30.49 "Hg9 mi
4:00 PM23 °FOvercast.3 mph86%30.49 "Hg9 mi
3:00 PM25 °FOvercast.5 mph80%30.52 "Hg9 mi
2:00 PM23 °FOvercast.3 mph86%30.52 "Hg9 mi
1:00 PM23 °FOvercast.3 mph80%30.52 "Hg9 mi
12:00 PM21 °FOvercast.5 mph86%30.53 "Hg9 mi
11:00 AM19 °FOvercast.2 mph86%30.53 "Hg9 mi
10:00 AM16 °FOvercast.2 mph93%30.55 "Hg9 mi
9:00 AM10 °FSunny.2 mph92%30.53 "Hg9 mi
8:00 AM7 °FSunny.2 mph92%30.53 "Hg9 mi
7:00 AM10 °FClear.No wind100%30.52 "Hg9 mi
6:00 AM10 °FPassing clouds.2 mph92%30.53 "Hg9 mi
5:00 AM16 °FPassing clouds.2 mph93%30.52 "Hg9 mi
4:00 AM16 °FClear.No wind93%30.51 "Hg9 mi
3:00 AM16 °FPassing clouds.No wind93%30.51 "Hg9 mi
2:00 AM19 °FPassing clouds.2 mph86%30.50 "Hg9 mi
1:00 AM25 °FPassing clouds.8 mph80%30.47 "Hg9 mi
Weather by CustomWeather, © 2014

See weather overviewHow to use our weather pages